Wind_Speed
12 12 13 14 14 15 16 17 18 18 18 19 19 19 19 19 20 19 19 19 19 19 19 19 20 20 21 22 22 21 21 21 21 20 19 18 18 17 17 17 16 16 16 16
10 11 11 12 13 14 14 15 16 16 17 18 18 18 18 18 18 18 18 18 18 18 18 19 19 19 20 20 20 20 19 19 18 17 16 15 15 14 13 13 13 13 13 13
7 8 9 10 10 11 12 12 13 15 16 17 18 18 18 17 17 18 18 18 18 18 18 18 18 18 18 18 17 17 17 16 15 14 13 12 12 11 10 10 10 10 9 10
6 7 8 8 9 9 10 12 14 14 15 16 16 17 17 16 16 17 17 17 17 16 17 17 17 16 15 14 14 14 13 13 12 11 10 10 9 8 7 7 7 7 7 6
6 7 7 8 9 9 10 11 12 13 14 15 16 16 15 16 15 16 16 16 16 15 15 15 14 13 12 12 11 11 11 10 9 9 8 7 6 5 5 5 5 4 4 4
5 5 7 7 8 8 9 10 11 12 14 15 14 14 13 14 14 15 15 14 14 13 12 11 11 11 10 9 8 8 8 7 7 7 6 6 5 4 3 3 2 2 2 1
4 4 6 7 7 7 8 10 11 12 13 13 12 12 12 13 13 13 13 12 11 10 9 9 9 9 8 7 6 6 6 5 5 4 4 4 3 3 2 2 1 1 2 2
3 4 5 6 6 7 9 10 11 11 11 11 11 11 12 12 12 11 11 9 8 8 8 8 7 6 5 4 4 4 4 4 4 3 4 4 3 3 3 3 3 3 3 3
3 4 5 6 7 8 8 9 10 11 11 11 11 11 11 11 10 9 8 7 8 8 7 6 5 4 3 3 3 3 3 3 3 4 4 4 4 4 4 4 4 4 5 5
3 4 5 6 7 7 8 9 9 10 10 10 10 10 9 9 8 8 8 7 7 7 7 6 5 4 3 2 2 3 4 4 4 5 6 6 6 6 7 7 7 7 7 8
3 4 6 7 8 8 8 8 8 8 9 9 9 8 8 8 8 8 8 7 7 6 6 6 5 4 4 4 4 4 5 5 5 6 7 7 8 8 9 9 9 9 9 9
4 5 6 7 8 8 7 7 8 8 8 7 7 7 7 7 7 6 7 7 7 7 7 7 7 6 6 6 6 6 6 7 7 7 7 7 8 9 9 9 10 10 10 11
4 5 6 7 8 8 8 8 8 8 7 7 7 7 7 7 6 6 6 6 7 7 7 8 8 8 8 8 7 8 8 8 8 8 8 8 9 9 10 10 11 11 12 12
4 5 6 7 8 8 8 7 8 8 8 7 8 8 8 7 7 6 6 6 7 8 8 9 9 10 10 10 10 9 9 9 10 10 10 10 10 10 11 11 12 12 12 12
5 6 6 7 7 8 8 7 8 8 7 8 8 8 7 7 7 7 7 7 8 9 9 10 10 11 11 11 11 11 11 11 11 11 12 12 12 12 12 12 12 12 12 12
5 6 6 7 7 8 8 7 8 8 7 8 8 7 7 7 7 8 8 8 9 9 10 10 10 11 11 12 12 12 12 12 12 12 12 13 13 13 13 13 13 13 12 12
5 6 6 7 7 7 7 7 8 8 7 8 8 7 7 8 8 8 8 8 9 9 9 10 11 11 11 11 11 12 12 12 12 12 12 12 12 12 12 12 12 11 11 11
5 5 5 6 6 7 7 7 8 7 7 7 7 7 7 7 7 7 8 8 8 8 8 9 9 10 10 10 10 10 11 11 11 11 11 10 10 10 10 10 10 10 10 9
5 5 5 5 6 6 7 7 7 7 8 7 7 7 7 6 6 6 6 6 7 7 7 8 8 8 9 8 8 8 9 9 9 9 9 9 8 8 8 8 8 8 8 8
4 4 5 5 5 6 6 6 6 7 7 7 7 6 6 6 5 5 5 5 5 6 6 6 6 6 6 6 6 6 6 6 7 7 7 7 7 7 6 6 6 6 6 6
3 4 4 4 4 5 5 5 5 5 6 6 6 6 5 4 4 4 4 4 4 3 4 4 4 4 4 4 4 4 4 4 4 5 5 5 5 4 4 4 4 4 4 3
3 3 3 3 3 4 4 4 4 4 4 5 5 5 4 3 2 2 2 2 2 1 1 1 2 2 1 1 1 1 1 1 2 2 2 2 2 2 2 2 1 1 1 1
4 4 3 3 3 3 3 4 4 4 4 4 4 4 4 3 2 2 1 1 1 1 1 1 1 1 1 1 1 1 2 2 2 2 2 2 2 2 2 2 2 2 2 2
5 5 5 4 4 4 4 4 4 5 4 4 5 5 5 4 4 3 3 3 3 3 3 3 3 3 4 4 4 4 4 5 5 5 5 5 5 5 5 5 5 5 6 6
7 6 6 6 6 6 6 6 6 6 6 6 6 6 6 6 6 6 6 5 5 5 5 6 6 6 6 6 7 7 7 7 8 8 8 8 8 9 9 9 9 9 10 10
9 8 8 8 8 8 8 8 8 8 8 8 8 8 8 8 8 8 8 8 8 8 8 9 9 9 9 10 10 10 11 11 11 11 12 12 12 13 13 13 13 14 14 14
11 11 11 10 10 10 10 10 10 10 10 10 10 10 10 10 10 10 10 10 10 11 11 11 12 13 13 13 13 14 14 14 15 15 15 16 16 17 17 17 18 18 18 18
Wind_Direction
237 244 250 255 259 263 267 271 273 277 283 290 293 296 298 299 300 301 301 299 297 296 294 292 290 290 288 288 288 288 290 291 292 293 291 288 285 283 281 279 279 275 275 276
235 245 256 259 261 264 266 273 276 280 284 290 295 298 302 302 301 301 301 300 301 299 297 295 293 293 291 290 289 289 290 292 294 295 295 292 288 287 281 280 278 276 276 278
242 254 258 261 266 269 273 276 284 288 289 294 298 298 300 303 303 303 304 301 300 297 296 294 293 293 292 291 291 291 293 294 295 297 299 297 293 287 283 282 281 281 279 279
251 258 261 264 270 278 283 285 287 290 293 297 300 302 303 303 302 303 306 304 301 298 297 296 295 295 294 296 295 295 296 298 298 300 302 299 297 292 287 285 287 285 283 286
255 264 271 272 277 282 286 291 290 292 297 301 305 307 308 308 308 310 309 307 303 299 297 297 296 296 297 298 298 299 300 300 301 303 308 309 308 304 295 291 291 296 296 303
262 271 276 285 290 292 296 297 298 298 301 305 307 311 314 316 315 314 314 311 309 306 302 301 301 300 299 302 306 308 307 307 310 312 317 321 322 328 322 313 312 305 327 357
273 283 288 293 300 303 298 303 303 304 308 310 311 313 315 320 320 318 317 316 314 312 312 311 310 309 309 307 311 313 316 326 334 334 338 339 343 352 358 3 12 25 17 12
288 296 302 305 306 310 308 308 308 310 315 319 321 321 321 325 327 327 326 325 323 319 321 318 318 318 317 325 330 333 342 353 4 12 16 24 35 42 50 61 66 60 53 60
309 317 321 318 316 316 315 311 313 315 314 319 323 325 329 332 334 338 340 340 339 341 342 340 342 339 337 352 4 14 25 35 42 46 51 56 59 62 66 74 76 73 76 81
314 324 329 326 323 322 319 317 316 319 322 324 330 332 332 340 348 352 358 1 3 10 10 11 17 24 24 19 37 52 60 65 72 72 71 70 70 75 81 84 85 87 89 90
335 338 337 335 335 336 332 330 332 331 331 331 334 338 341 348 356 5 11 17 25 29 26 27 35 47 54 67 77 82 82 86 89 86 82 79 80 83 84 84 86 88 89 90
347 347 346 344 346 352 352 348 350 349 345 347 354 360 4 10 15 19 23 28 34 36 39 50 59 64 69 79 87 90 90 90 90 89 86 86 88 90 90 89 90 94 95 95
355 352 354 355 357 1 4 360 359 2 3 5 11 18 22 25 29 31 35 39 44 50 56 63 69 71 76 80 86 90 92 93 91 91 90 91 92 92 91 91 93 95 96 95
360 358 359 4 7 11 12 9 11 16 20 24 26 29 32 37 40 45 53 56 61 65 69 71 73 73 76 80 84 88 92 91 89 90 93 96 96 96 95 95 96 96 96 94
6 4 6 7 11 15 18 19 21 27 32 33 32 32 36 42 49 57 64 69 69 70 72 73 74 77 79 80 82 86 89 89 89 90 93 94 96 98 99 99 98 97 96 95
15 15 18 17 16 18 22 21 24 32 37 36 36 41 47 50 56 66 73 76 74 75 76 76 77 81 84 84 85 87 90 91 92 92 93 94 95 97 98 98 97 96 94 94
21 20 19 19 22 26 28 28 30 35 39 42 45 50 55 59 63 69 74 78 79 79 79 79 83 86 88 87 88 89 90 93 95 96 96 95 96 98 98 98 98 97 96 96
28 25 24 26 26 30 36 37 38 40 42 45 46 49 54 58 66 74 76 79 83 84 86 88 88 89 90 89 90 91 92 94 95 96 97 98 100 100 99 99 99 99 99 99
34 30 29 29 29 32 36 38 41 42 44 46 48 52 58 63 68 73 76 80 85 89 91 91 91 92 92 93 92 92 94 94 96 97 96 95 96 98 99 100 101 101 100 100
24 25 28 31 32 32 33 36 38 41 43 45 47 51 57 64 69 74 75 76 81 89 95 97 96 94 94 93 93 92 92 94 97 97 95 93 93 95 97 98 100 103 102 101
10 16 20 23 27 29 30 31 32 35 36 37 37 39 49 60 66 69 71 70 74 86 96 100 99 97 97 93 89 91 93 96 99 101 99 97 97 97 96 95 98 102 103 103
338 353 3 9 12 13 14 14 16 18 18 20 21 26 32 36 40 45 54 60 63 75 87 104 117 117 106 101 86 96 116 121 119 117 116 120 124 119 110 103 103 114 122 125
308 320 329 338 347 354 355 353 352 353 354 357 359 4 5 2 354 344 334 328 320 302 288 268 231 225 229 229 237 237 234 236 242 242 241 235 234 236 245 254 257 257 256 258
293 296 301 304 311 322 327 327 327 326 325 326 328 329 331 329 319 309 297 287 278 270 269 270 268 262 259 256 255 254 253 253 253 255 257 260 262 263 265 267 268 267 267 269
281 284 285 285 289 295 302 306 308 310 308 306 307 305 303 304 301 294 286 278 272 269 270 270 269 269 269 268 266 262 261 261 261 262 263 264 266 269 271 272 272 273 273 275
276 277 279 281 283 285 289 292 295 296 296 295 295 296 296 295 294 290 283 277 274 272 271 270 269 269 270 271 270 268 268 268 268 269 269 269 270 271 272 273 274 275 276 277
274 276 278 279 279 281 283 286 287 288 289 290 290 289 289 288 286 285 283 279 275 274 275 275 274 273 273 273 271 271 271 270 270 270 271 272 272 273 273 273 274 275 276 278
Height
5787 5788 5789 5790 5791 5791 5792 5792 5792 5791 5791 5790 5788 5786 5784 5782 5780 5778 5775 5773 5770 5768 5766 5764 5762 5760 5757 5755 5753 5752 5750 5748 5746 5744 5743 5741 5740 5739 5738 5738 5737 5737 5737 5737
5784 5785 5786 5787 5787 5788 5788 5788 5788 5787 5787 5786 5784 5781 5779 5777 5775 5773 5770 5768 5765 5763 5761 5759 5756 5754 5752 5750 5748 5746 5745 5743 5742 5740 5738 5737 5736 5735 5734 5733 5733 5733 5732 5732
5782 5783 5784 5785 5785 5785 5785 5785 5784 5783 5783 5781 5779 5777 5775 5773 5771 5768 5766 5763 5760 5758 5756 5754 5752 5749 5747 5745 5743 5742 5740 5739 5738 5736 5734 5733 5732 5731 5730 5730 5730 5729 5729 5729
5781 5782 5782 5785 5782 5782 5782 5782 5781 5780 5779 5777 5775 5773 5771 5768 5766 5764 5761 5758 5756 5753 5751 5749 5747 5744 5743 5741 5740 5738 5737 5735 5734 5733 5732 5730 5729 5728 5728 5727 5727 5727 5726 5726
5780 5780 5780 5781 5780 5780 5779 5779 5777 5776 5775 5773 5771 5769 5766 5764 5761 5759 5756 5754 5751 5749 5747 5744 5742 5741 5739 5738 5736 5735 5734 5733 5732 5730 5729 5728 5727 5726 5726 5725 5725 5725 5725 5725
5779 5779 5779 5780 5778 5777 5778 5776 5775 5773 5771 5770 5768 5766 5764 5760 5757 5755 5752 5749 5747 5745 5743 5741 5739 5738 5736 5735 5734 5733 5732 5731 5730 5728 5728 5727 5726 5725 5725 5724 5724 5724 5724 5724
5778 5778 5777 5778 5776 5776 5776 5775 5772 5770 5768 5766 5764 5763 5760 5757 5754 5752 5749 5746 5744 5742 5740 5738 5737 5735 5734 5733 5732 5731 5730 5729 5728 5727 5727 5726 5725 5725 5724 5724 5724 5724 5724 5724
5777 5776 5778 5776 5775 5774 5773 5771 5769 5767 5766 5763 5761 5759 5757 5754 5751 5749 5746 5744 5742 5740 5738 5736 5735 5734 5733 5732 5731 5730 5729 5729 5728 5727 5727 5726 5725 5725 5725 5725 5724 5724 5724 5724
5777 5777 5775 5774 5773 5772 5770 5768 5767 5765 5763 5761 5758 5756 5754 5751 5749 5747 5745 5742 5740 5738 5737 5735 5734 5733 5732 5732 5731 5730 5730 5729 5728 5728 5727 5727 5726 5726 5726 5726 5726 5726 5726 5726
5775 5775 5774 5773 5771 5770 5768 5766 5764 5762 5760 5758 5756 5754 5752 5750 5748 5746 5744 5742 5740 5738 5736 5735 5734 5733 5733 5732 5731 5731 5730 5730 5730 5729 5729 5728 5728 5728 5727 5727 5727 5727 5728 5728
5775 5774 5773 5771 5770 5768 5766 5764 5762 5760 5758 5756 5754 5752 5750 5749 5747 5745 5744 5742 5740 5739 5737 5736 5735 5734 5733 5733 5732 5732 5732 5732 5731 5731 5731 5731 5731 5730 5730 5730 5730 5730 5730 5730
5774 5774 5772 5771 5768 5767 5765 5763 5761 5759 5757 5755 5753 5751 5750 5748 5747 5746 5744 5743 5741 5740 5738 5737 5736 5735 5735 5734 5734 5734 5733 5733 5733 5733 5733 5733 5733 5733 5733 5733 5733 5733 5733 5733
5773 5772 5771 5770 5768 5766 5764 5762 5760 5758 5756 5754 5753 5751 5750 5749 5747 5746 5745 5744 5743 5742 5741 5739 5738 5738 5737 5737 5736 5736 5736 5736 5736 5736 5735 5735 5735 5736 5736 5736 5736 5736 5736 5737
5773 5772 5770 5769 5767 5766 5764 5762 5760 5758 5757 5755 5754 5752 5751 5750 5749 5748 5746 5745 5745 5744 5743 5742 5742 5741 5740 5740 5739 5739 5738 5738 5738 5738 5738 5738 5738 5738 5739 5739 5740 5740 5740 5741
5772 5771 5770 5768 5767 5765 5764 5762 5761 5759 5758 5756 5755 5754 5753 5752 5751 5750 5749 5748 5747 5747 5746 5745 5745 5744 5744 5743 5743 5742 5742 5742 5742 5742 5742 5742 5742 5742 5743 5743 5743 5744 5744 5744
5772 5771 5769 5768 5767 5765 5764 5763 5761 5760 5759 5758 5757 5756 5755 5754 5753 5752 5751 5751 5750 5750 5750 5749 5748 5748 5748 5747 5747 5746 5746 5746 5746 5746 5746 5746 5746 5746 5747 5747 5747 5747 5748 5748
5772 5771 5770 5769 5767 5766 5765 5764 5763 5762 5761 5760 5759 5758 5757 5757 5756 5755 5755 5754 5754 5753 5753 5753 5752 5752 5751 5751 5751 5751 5750 5750 5750 5750 5750 5750 5750 5751 5751 5751 5751 5751 5752 5752
5773 5772 5771 5770 5768 5768 5767 5766 5764 5763 5763 5762 5761 5760 5760 5759 5759 5758 5758 5757 5757 5756 5756 5756 5756 5755 5755 5755 5755 5755 5754 5754 5754 5754 5754 5754 5754 5754 5754 5755 5755 5755 5755 5755
5774 5773 5772 5771 5770 5769 5768 5767 5766 5766 5765 5764 5763 5762 5762 5761 5761 5761 5760 5760 5760 5759 5759 5759 5759 5759 5759 5758 5758 5758 5758 5758 5758 5758 5757 5758 5758 5758 5758 5758 5758 5758 5758 5758
5775 5774 5773 5772 5771 5770 5770 5769 5768 5768 5767 5766 5765 5764 5764 5763 5763 5763 5763 5762 5762 5762 5762 5762 5762 5762 5761 5761 5761 5761 5761 5761 5761 5761 5760 5760 5760 5761 5761 5761 5761 5761 5761 5761
5776 5775 5774 5773 5772 5772 5771 5770 5770 5769 5768 5768 5767 5766 5766 5765 5765 5765 5764 5764 5764 5764 5764 5764 5764 5764 5764 5764 5763 5763 5763 5763 5763 5763 5763 5763 5763 5763 5763 5763 5763 5762 5762 5762
5776 5775 5775 5774 5773 5772 5772 5771 5771 5770 5769 5769 5768 5768 5767 5767 5766 5766 5766 5766 5766 5766 5765 5765 5765 5765 5765 5765 5765 5765 5765 5765 5765 5764 5764 5764 5764 5764 5764 5764 5764 5764 5764 5763
5776 5776 5775 5774 5774 5773 5773 5772 5771 5771 5770 5770 5769 5769 5768 5768 5767 5767 5767 5767 5766 5766 5766 5766 5766 5766 5766 5766 5766 5766 5766 5766 5765 5765 5765 5765 5765 5765 5765 5765 5764 5764 5764 5764
5776 5775 5775 5774 5774 5773 5773 5772 5772 5771 5770 5770 5769 5769 5768 5768 5767 5767 5767 5767 5766 5766 5766 5766 5766 5766 5766 5766 5766 5766 5765 5765 5765 5765 5765 5765 5765 5765 5764 5764 5764 5763 5763 5763
5774 5774 5774 5773 5773 5773 5772 5771 5771 5770 5770 5769 5769 5768 5768 5767 5767 5766 5766 5766 5766 5765 5766 5765 5765 5765 5765 5765 5765 5765 5764 5764 5764 5764 5764 5764 5763 5763 5763 5762 5762 5762 5761 5761
5773 5772 5772 5772 5771 5771 5771 5770 5769 5769 5768 5768 5767 5767 5766 5765 5765 5765 5765 5764 5764 5764 5764 5764 5764 5763 5763 5763 5763 5762 5762 5762 5762 5761 5761 5761 5761 5760 5760 5759 5759 5758 5758 5757
5770 5770 5770 5769 5769 5769 5768 5768 5767 5767 5766 5766 5765 5764 5764 5763 5763 5762 5762 5762 5762 5762 5761 5761 5761 5761 5760 5760 5760 5759 5759 5759 5758 5758 5758 5757 5757 5756 5756 5755 5755 5754 5753 5753